Weather History for Peru, IL

Change the Weather History Date:

Saturday, February 23, 2013

  Actual Average Record
Temperature  
Mean Temperature 26 °F -  
Max Temperature 30 °F 40 °F 62 °F (1984)
Min Temperature 21 °F 22 °F -6 °F (1989)
Degree Days  
Heating Degree Days 40    
Moisture  
Dew Point 19 °F    
Average Humidity 77    
Maximum Humidity 85    
Minimum Humidity 68    
Precipitation  
Precipitation 0.00 in - - ()
Sea Level Pressure  
Sea Level Pressure 29.95 in    
Wind  
Wind Speed 11 mph (WSW)    
Max Wind Speed 16 mph    
Max Gust Speed 21 mph    
Visibility 10 miles    
Events Snow    
Averages and records for this station are not official NWS values.
T = Trace of Precipitation, MM = Missing Value Source: NWS Daily Summary

Daily Weather History Graph

Daily Weather History Graph

Search for Another Location

Airport:

Trip Planner

Search our weather history database for the weather conditions in past years. The results will help you decide how hot, cold, wet, or windy it might be!

Date:

Astronomy

Feb. 23, 2013 Rise Set
Actual Time 6:39 AM CST 5:40 PM CST
Civil Twilight 6:11 AM CST 6:08 PM CST
Nautical Twilight 5:39 AM CST 6:40 PM CST
Astronomical Twilight 5:07 AM CST 7:12 PM CST
Moon 3:50 PM CST (2/23) 5:03 AM CST (2/23)
Length of Visible Light 11h 56m
Length of Day
11h 00m
Waxing Gibbous, 95% of the Moon is Illuminated
Feb 23
Waxing Gibbous
Feb 25
Full
Mar 4
Last Quarter
Mar 11
New
Mar 19
First Quarter

Hourly Weather History & Observations

Time (CST) Temp. Windchill Dew Point Humidity Pressure Visibility Wind Dir Wind Speed Gust Speed Precip Events Conditions
12:15 AM 26.4 °F 15.5 °F 21.6 °F 82% 29.94 in 10.0 mi West 12.7 mph - N/A   Overcast
12:35 AM 26.1 °F 15.0 °F 21.2 °F 82% 29.94 in 10.0 mi West 12.7 mph - N/A   Overcast
12:55 AM 25.0 °F 14.2 °F 20.3 °F 82% 29.94 in 10.0 mi West 11.5 mph - N/A   Mostly Cloudy
1:15 AM 24.4 °F 14.2 °F 19.9 °F 83% 29.94 in 10.0 mi West 10.4 mph - N/A   Scattered Clouds
1:35 AM 23.5 °F 13.0 °F 19.4 °F 84% 29.94 in 10.0 mi WSW 10.4 mph - N/A   Clear
1:55 AM 23.5 °F 14.5 °F 19.6 °F 85% 29.94 in 10.0 mi WSW 8.1 mph - N/A   Mostly Cloudy
2:15 AM 23.9 °F 14.2 °F 19.8 °F 84% 29.94 in 10.0 mi WSW 9.2 mph - N/A   Overcast
2:35 AM 24.6 °F 14.4 °F 19.9 °F 82% 29.94 in 10.0 mi SW 10.4 mph - N/A   Overcast
2:55 AM 24.4 °F 13.5 °F 19.2 °F 81% 29.93 in 10.0 mi WSW 11.5 mph - N/A   Overcast
3:15 AM 24.4 °F 14.2 °F 18.9 °F 79% 29.93 in 10.0 mi WSW 10.4 mph - N/A   Overcast
3:35 AM 24.6 °F 15.1 °F 18.7 °F 78% 29.93 in 10.0 mi WSW 9.2 mph - N/A   Overcast
3:55 AM 24.6 °F 15.1 °F 18.7 °F 78% 29.94 in 10.0 mi WSW 9.2 mph - N/A   Overcast
4:15 AM 24.8 °F 14.6 °F 19.0 °F 79% 29.95 in 10.0 mi WSW 10.4 mph - N/A   Overcast
4:35 AM 25.0 °F 14.2 °F 19.4 °F 79% 29.94 in 10.0 mi WSW 11.5 mph - N/A   Overcast
4:55 AM 24.8 °F 14.0 °F 19.4 °F 80% 29.95 in 7.0 mi WSW 11.5 mph - N/A Snow Light Snow
5:15 AM 24.8 °F 13.4 °F 19.4 °F 80% 29.95 in 7.0 mi West 12.7 mph - N/A Snow Light Snow
5:35 AM 24.8 °F 14.0 °F 19.4 °F 80% 29.96 in 10.0 mi WSW 11.5 mph - N/A Snow Light Snow
5:55 AM 24.8 °F 14.6 °F 19.2 °F 79% 29.96 in 10.0 mi WSW 10.4 mph - N/A   Overcast
6:15 AM 24.8 °F 14.6 °F 19.0 °F 79% 29.96 in 10.0 mi West 10.4 mph 16.1 mph N/A   Overcast
6:35 AM 24.6 °F 14.4 °F 18.9 °F 79% 29.96 in 10.0 mi West 10.4 mph - N/A Snow Light Snow
6:55 AM 24.6 °F 14.4 °F 19.0 °F 79% 29.96 in 10.0 mi West 10.4 mph - N/A Snow Light Snow
7:15 AM 23.9 °F 14.2 °F 18.5 °F 80% 29.96 in 10.0 mi West 9.2 mph - N/A   Overcast
7:35 AM 24.6 °F 13.8 °F 18.5 °F 78% 29.95 in 10.0 mi West 11.5 mph - N/A   Overcast
7:55 AM 24.6 °F 14.4 °F 18.5 °F 78% 29.96 in 10.0 mi West 10.4 mph - N/A   Overcast
8:15 AM 24.8 °F 14.0 °F 19.2 °F 79% 29.97 in 7.0 mi West 11.5 mph - N/A Snow Light Snow
8:35 AM 24.8 °F 15.3 °F 19.4 °F 80% 29.97 in 5.0 mi West 9.2 mph - N/A Snow Light Snow
8:55 AM 24.8 °F 15.3 °F 19.8 °F 81% 29.97 in 3.0 mi West 9.2 mph - N/A Snow Light Snow
9:15 AM 25.5 °F 15.5 °F 19.9 °F 79% 29.96 in 5.0 mi West 10.4 mph 17.3 mph N/A Snow Light Snow
9:35 AM 25.9 °F 13.8 °F 19.4 °F 76% 29.96 in 10.0 mi West 15.0 mph - N/A   Overcast
9:55 AM 26.1 °F 15.0 °F 18.5 °F 73% 29.97 in 10.0 mi West 12.7 mph - N/A   Mostly Cloudy
10:15 AM 26.6 °F 16.2 °F 18.3 °F 71% 29.97 in 10.0 mi West 11.5 mph - N/A   Overcast
10:35 AM 27.0 °F 16.1 °F 18.5 °F 70% 29.97 in 10.0 mi West 12.7 mph 16.1 mph N/A   Overcast
10:55 AM 27.1 °F 14.9 °F 19.0 °F 72% 29.97 in 10.0 mi West 16.1 mph 19.6 mph N/A   Overcast
11:15 AM 27.1 °F 15.4 °F 18.9 °F 71% 29.97 in 10.0 mi West 15.0 mph 19.6 mph N/A   Overcast
11:35 AM 27.5 °F 17.4 °F 19.4 °F 72% 29.95 in 10.0 mi West 11.5 mph - N/A   Overcast
11:55 AM 27.1 °F 16.9 °F 18.7 °F 70% 29.95 in 10.0 mi WNW 11.5 mph - N/A   Overcast
12:15 PM 27.1 °F 15.9 °F 18.7 °F 70% 29.94 in 10.0 mi WNW 13.8 mph 17.3 mph N/A   Overcast
12:35 PM 27.5 °F 18.0 °F 19.2 °F 71% 29.94 in 10.0 mi WNW 10.4 mph 17.3 mph N/A   Overcast
12:55 PM 27.5 °F 17.4 °F 19.2 °F 71% 29.94 in 10.0 mi West 11.5 mph 20.7 mph N/A   Overcast
1:15 PM 28.0 °F 18.1 °F 19.8 °F 71% 29.93 in 10.0 mi West 11.5 mph - N/A   Overcast
1:35 PM 28.4 °F 18.0 °F 19.9 °F 71% 29.93 in 10.0 mi West 12.7 mph - N/A   Overcast
1:55 PM 28.4 °F 19.1 °F 20.1 °F 71% 29.94 in 10.0 mi West 10.4 mph - N/A   Overcast
2:15 PM 28.8 °F 17.9 °F 20.5 °F 71% 29.94 in 10.0 mi West 13.8 mph - N/A   Overcast
2:35 PM 28.4 °F 19.1 °F 19.4 °F 69% 29.93 in 10.0 mi West 10.4 mph - N/A   Overcast
2:55 PM 29.1 °F 20.6 °F 20.1 °F 69% 29.93 in 10.0 mi West 9.2 mph - N/A   Overcast
3:15 PM 30.0 °F 21.1 °F 20.7 °F 68% 29.93 in 10.0 mi West 10.4 mph - N/A   Scattered Clouds
3:35 PM 30.2 °F 19.8 °F 21.2 °F 69% 29.93 in 10.0 mi West 13.8 mph - N/A   Clear
3:55 PM 29.7 °F 20.7 °F 20.5 °F 69% 29.93 in 10.0 mi West 10.4 mph - N/A   Clear
4:15 PM 29.1 °F 20.0 °F 20.8 °F 71% 29.93 in 10.0 mi West 10.4 mph - N/A   Scattered Clouds
4:35 PM 28.9 °F 19.8 °F 21.0 °F 72% 29.93 in 10.0 mi WSW 10.4 mph - N/A   Scattered Clouds
4:55 PM 28.6 °F 17.7 °F 21.0 °F 73% 29.94 in 10.0 mi WSW 13.8 mph - N/A   Mostly Cloudy
5:15 PM 28.2 °F 18.3 °F 20.7 °F 73% 29.95 in 10.0 mi WSW 11.5 mph - N/A   Mostly Cloudy
5:35 PM 27.5 °F 19.3 °F 20.3 °F 74% 29.95 in 10.0 mi WSW 8.1 mph - N/A   Scattered Clouds
5:55 PM 26.8 °F 17.7 °F 19.9 °F 75% 29.96 in 10.0 mi WSW 9.2 mph - N/A   Clear
6:15 PM 26.2 °F 17.8 °F 19.8 °F 76% 29.96 in 10.0 mi WSW 8.1 mph - N/A   Clear
6:35 PM 25.7 °F 19.0 °F 19.4 °F 77% 29.97 in 10.0 mi WSW 5.8 mph - N/A   Clear
6:55 PM 24.8 °F 16.9 °F 19.0 °F 79% 29.97 in 10.0 mi WSW 6.9 mph - N/A   Clear
7:15 PM 24.6 °F 16.7 °F 19.2 °F 80% 29.97 in 10.0 mi SW 6.9 mph - N/A   Clear
7:35 PM 24.3 °F 16.3 °F 19.0 °F 80% 29.97 in 10.0 mi SW 6.9 mph - N/A   Clear
7:55 PM 23.4 °F 14.3 °F 18.3 °F 81% 29.97 in 10.0 mi SW 8.1 mph - N/A   Clear
8:15 PM 22.8 °F 13.6 °F 18.3 °F 83% 29.97 in 10.0 mi WSW 8.1 mph - N/A   Clear
8:35 PM 22.8 °F 15.5 °F 18.3 °F 83% 29.98 in 10.0 mi WSW 5.8 mph - N/A   Clear
8:55 PM 22.1 °F 13.7 °F 17.8 °F 83% 29.98 in 10.0 mi WSW 6.9 mph - N/A   Clear
9:15 PM 21.9 °F 14.5 °F 18.1 °F 85% 29.98 in 10.0 mi WSW 5.8 mph - N/A   Clear
9:35 PM 21.7 °F 13.2 °F 17.8 °F 85% 29.98 in 10.0 mi WSW 6.9 mph - N/A   Clear
9:55 PM 21.6 °F 11.3 °F 17.4 °F 84% 29.98 in 10.0 mi WSW 9.2 mph - N/A   Clear
10:15 PM 21.2 °F 10.9 °F 17.1 °F 84% 29.98 in 10.0 mi WSW 9.2 mph - N/A   Clear
10:35 PM 21.9 °F 11.7 °F 17.2 °F 82% 29.98 in 10.0 mi WSW 9.2 mph - N/A   Clear
10:55 PM 21.9 °F 11.7 °F 17.2 °F 82% 29.98 in 10.0 mi WSW 9.2 mph - N/A   Clear
11:15 PM 21.7 °F 11.5 °F 16.9 °F 82% 29.98 in 10.0 mi WSW 9.2 mph - N/A   Clear
11:35 PM 21.9 °F 11.7 °F 17.4 °F 83% 29.98 in 10.0 mi WSW 9.2 mph - N/A   Clear
11:55 PM 21.0 °F 12.4 °F 16.5 °F 83% 29.98 in 10.0 mi WSW 6.9 mph - N/A   Clear